STARLINK-33637 (63470 NORAD) Tracking and Keplerian Element Data

This shows tracking and keplerian element data for the satellite.

Feedback or suggestion? Click here.




ElementValue
Catalog63470
NameSTARLINK-33637
Epoch Orbit4078
Epoch Day353.99813867
Epoch Year2025
RAAN350.2862
Inclination43.0009
Eccentricity9.21E-05
Argument of Perigee265.9007
Mean Anonmoly94.1739
Mean Motion15.2758273
Decay Rate0.00021473
L11 63470U 25070L 25353.99813867 .00021473 00000+0 78751-3 0 9990
L22 63470 43.0009 350.2862 0000921 265.9007 94.1739 15.27582730 40787



Live tracking and technical data element details for STARLINK-33637 (NORAD 63470). STARLINK-33637 can be tracked NOW for your location showing map with azimuth and elevation plus other details from your city location.







IsCatalogInMostPopularTable: catalog: 63470, numindb: 2
Update: records affected: 1



GetName: 63470 STARLINK-33637

Hit Count: updated at: Sun, 08 Feb 2026 08:25:02 GMT